This is the latest recevied weather packets stored in our database for station/object K7NDG. If no packets are shown the sender has not sent any weather packets the latest 10 day(s).
| Time | Temp. | Humidity | Pressure | Rain* | Wind** | Luminosity | Snow |
|---|---|---|---|---|---|---|---|
| 1777824290 | 16.67° C | 79% | 1014.1 hPa | 0 mm | - | 289 W/m² | - |
| 1777823984 | 16.11° C | 80% | 1014.1 hPa | 0 mm | - | 279 W/m² | - |
| 1777823682 | 15.56° C | 80% | 1014.2 hPa | 0 mm | - | 116 W/m² | - |
| 1777823379 | 15.56° C | 81% | 1014.2 hPa | 0 mm | - | 263 W/m² | - |
| 1777823077 | 15° C | 82% | 1014.1 hPa | 0 mm | - | 624 W/m² | - |
| 1777822774 | 14.44° C | 82% | 1014.1 hPa | 0 mm | - | 302 W/m² | - |
| 1777822472 | 13.89° C | 83% | 1014.2 hPa | 0 mm | - | 202 W/m² | - |
| 1777822170 | 13.89° C | 83% | 1014.3 hPa | 0 mm | - | 172 W/m² | - |
| 1777821867 | 13.89° C | 83% | 1014.2 hPa | 0 mm | - | 170 W/m² | - |
| 1777821564 | 13.33° C | 83% | 1014.2 hPa | 0 mm | - | 147 W/m² | - |
| 1777821262 | 13.33° C | 83% | 1014.3 hPa | 0 mm | - | 144 W/m² | - |
| 1777820959 | 12.78° C | 85% | 1014.3 hPa | 0 mm | - | 155 W/m² | - |
| 1777820655 | 12.78° C | 86% | 1014.2 hPa | 0 mm | - | 154 W/m² | - |
| 1777820351 | 12.22° C | 86% | 1014.3 hPa | 0 mm | - | 137 W/m² | - |
| 1777820049 | 12.22° C | 87% | 1014.3 hPa | 0 mm | - | 135 W/m² | - |
| 1777819745 | 11.67° C | 87% | 1014.2 hPa | 0 mm | - | 114 W/m² | - |
| 1777819444 | 11.67° C | 87% | 1014.1 hPa | 0 mm | - | 99 W/m² | - |
| 1777819142 | 11.67° C | 88% | 1014 hPa | 0 mm | - | 110 W/m² | - |
| 1777818838 | 11.11° C | 87% | 1014.1 hPa | 0 mm | - | 79 W/m² | - |
| 1777818534 | 11.11° C | 87% | 1014.3 hPa | 0 mm | - | 73 W/m² | - |
| 1777818232 | 11.11° C | 88% | 1014.2 hPa | 0 mm | - | 62 W/m² | - |
| 1777817927 | 11.67° C | 88% | 1014 hPa | 0 mm | - | 55 W/m² | - |
| 1777817625 | 11.67° C | 88% | 1014.1 hPa | 0 mm | - | 50 W/m² | - |
| 1777817322 | 11.67° C | 89% | 1014.1 hPa | 0 mm | - | 43 W/m² | - |
| 1777817019 | 11.11° C | 90% | 1014.1 hPa | 0 mm | - | 38 W/m² | - |
* Rain latest hour (hover to see other rain measurements)
** Current wind speed in m/s (hover to see current wind gust speed)